Location: Aalen
(48.8330°N, 10.1000°E)
Time: 22:14:38
(UTC+02:00)

Transit 2A - Pass Details

Date: 30 July 2021
Orbit: 594 x 964 km, 66.7° (Epoch: 27 September)

Event Time Altitude Azimuth Distance (km) Brightness Sun altitude
Rises 06:40:24 0° 157° (SSE) 2,829 9.0 6.6°
Reaches altitude 10° 06:44:04 10° 124° (SE) 1,964 8.7 7.1°
Maximum altitude 06:45:32 12° 104° (ESE) 1,883 9.2 7.4°
Drops below altitude 10° 06:47:03 10° 84° (E) 2,010 10.3 7.6°
Sets 06:50:55 0° 52° (NE) 2,998 10.7 8.2°
